Change the Weather History Date:

Tuesday, January 24, 2012

  Actual Average (KHAI) Record (KHAI)
Temperature  
Mean Temperature 27 °F -  
Max Temperature 30 °F 34 °F 62 °F (1950)
Min Temperature 24 °F 17 °F -17 °F (1963)
Degree Days  
Heating Degree Days 38    
Moisture  
Dew Point 24 °F    
Average Humidity 82    
Maximum Humidity 93    
Minimum Humidity 80    
Precipitation  
Precipitation 0.00 in - - ()
Sea Level Pressure  
Sea Level Pressure 30.09 in    
Wind  
Wind Speed 12 mph (West)    
Max Wind Speed 17 mph    
Max Gust Speed 24 mph    
Visibility 10 miles    
Events      
Averages and records for this station are not official NWS values.
T = Trace of Precipitation, MM = Missing Value Source: NWS Daily Summary

Daily Weather History Graph

Daily Weather History Graph

Search for Another Location

Airport or City:

Trip Planner

Search our weather history database for the weather conditions in past years. The results will help you decide how hot, cold, wet, or windy it might be!

Date:

Astronomy

Jan. 24, 2012 Rise Set
Actual Time 8:01 AM EST 5:46 PM EST
Civil Twilight 7:31 AM EST 6:16 PM EST
Nautical Twilight 6:57 AM EST 6:50 PM EST
Astronomical Twilight 6:24 AM EST 7:23 PM EST
Moon 8:28 AM EST (1/24) 7:39 PM EST (1/24)
Length of Visible Light 10h 44m
Length of Day
9h 44m
New Moon, 2% of the Moon is Illuminated
Jan 24
New Moon
Jan 30
First Quarter
Feb 7
Full
Feb 14
Last Quarter
Feb 21
New

Hourly Weather History & Observations

Time (EST) Temp. Windchill Dew Point Humidity Pressure Visibility Wind Dir Wind Speed Gust Speed Precip Events Conditions
12:15 AM 30.2 °F 21.3 °F 24.8 °F 80% 29.85 in 10.0 mi West 10.4 mph 21.9 mph N/A   Overcast
12:35 AM 30.2 °F 19.3 °F 24.8 °F 80% 29.87 in 10.0 mi West 15.0 mph 23.0 mph N/A   Overcast
12:54 AM 30.2 °F 19.3 °F 24.8 °F 80% 29.87 in 10.0 mi West 15.0 mph - N/A   Overcast
1:15 AM 28.4 °F 17.5 °F 24.8 °F 86% 29.87 in 10.0 mi West 13.8 mph - N/A   Overcast
1:35 AM 30.2 °F 19.3 °F 24.8 °F 80% 29.88 in 10.0 mi West 15.0 mph 23.0 mph N/A   Overcast
1:54 AM 30.2 °F 19.3 °F 24.8 °F 80% 29.89 in 10.0 mi WSW 15.0 mph - N/A   Overcast
2:15 AM 30.2 °F 20.2 °F 24.8 °F 80% 29.90 in 10.0 mi WSW 12.7 mph - N/A   Overcast
2:35 AM 30.2 °F 18.5 °F 24.8 °F 80% 29.91 in 10.0 mi WSW 17.3 mph 24.2 mph N/A   Overcast
2:54 AM 30.2 °F 19.3 °F 24.8 °F 80% 29.91 in 10.0 mi WSW 15.0 mph - N/A   Overcast
3:34 AM 30.2 °F 18.9 °F 24.8 °F 80% 29.92 in 10.0 mi West 16.1 mph 24.2 mph N/A   Overcast
3:55 AM 28.4 °F 17.5 °F 23.0 °F 80% 29.92 in 10.0 mi West 13.8 mph 21.9 mph N/A   Overcast
4:14 AM 28.4 °F 17.5 °F 23.0 °F 80% 29.92 in 10.0 mi WSW 13.8 mph 18.4 mph N/A   Overcast
4:35 AM 28.4 °F 16.6 °F 23.0 °F 80% 29.93 in 10.0 mi West 16.1 mph 24.2 mph N/A   Overcast
5:14 AM 28.4 °F 18.5 °F 24.8 °F 86% 29.95 in 10.0 mi West 11.5 mph 23.0 mph N/A   Overcast
5:35 AM 28.4 °F 19.7 °F 24.8 °F 86% 29.96 in 10.0 mi West 9.2 mph - N/A   Overcast
5:55 AM 28.4 °F 17.0 °F 23.0 °F 80% 29.96 in 10.0 mi WSW 15.0 mph 18.4 mph N/A   Overcast
6:15 AM 28.4 °F 18.0 °F 23.0 °F 80% 29.97 in 10.0 mi WSW 12.7 mph - N/A   Overcast
6:35 AM 28.4 °F 18.0 °F 23.0 °F 80% 29.98 in 10.0 mi WSW 12.7 mph - N/A   Overcast
6:55 AM 28.4 °F 17.0 °F 23.0 °F 80% 29.99 in 10.0 mi West 15.0 mph - N/A   Overcast
7:15 AM 28.4 °F 18.0 °F 23.0 °F 80% 29.99 in 10.0 mi WSW 12.7 mph - N/A   Overcast
7:35 AM 28.4 °F 18.5 °F 23.0 °F 80% 30.01 in 10.0 mi WSW 11.5 mph 17.3 mph N/A   Overcast
7:54 AM 28.4 °F 18.0 °F 23.0 °F 80% 30.02 in 10.0 mi WSW 12.7 mph 18.4 mph N/A   Overcast
8:15 AM 28.4 °F 17.0 °F 23.0 °F 80% 30.03 in 10.0 mi West 15.0 mph 18.4 mph N/A   Overcast
8:35 AM 28.4 °F 18.0 °F 23.0 °F 80% 30.05 in 10.0 mi West 12.7 mph 20.7 mph N/A   Overcast
9:15 AM 28.4 °F 17.0 °F 24.8 °F 86% 30.06 in 10.0 mi West 15.0 mph - N/A   Overcast
9:34 AM 28.4 °F 19.7 °F 24.8 °F 86% 30.07 in 10.0 mi West 9.2 mph - N/A   Overcast
10:14 AM 28.4 °F 19.1 °F 24.8 °F 86% 30.10 in 10.0 mi West 10.4 mph 21.9 mph N/A   Overcast
10:35 AM 28.4 °F 18.5 °F 24.8 °F 86% 30.11 in 10.0 mi West 11.5 mph - N/A   Overcast
10:55 AM 28.4 °F 17.0 °F 24.8 °F 86% 30.12 in 10.0 mi West 15.0 mph 20.7 mph N/A   Overcast
11:14 AM 30.2 °F 21.3 °F 24.8 °F 80% 30.13 in 10.0 mi West 10.4 mph - N/A   Overcast
11:35 AM 30.2 °F 20.8 °F 24.8 °F 80% 30.13 in 10.0 mi West 11.5 mph 16.1 mph N/A   Overcast
11:55 AM 30.2 °F 19.3 °F 24.8 °F 80% 30.13 in 10.0 mi West 15.0 mph 19.6 mph N/A   Overcast
12:15 PM 30.2 °F 19.3 °F 24.8 °F 80% 30.13 in 10.0 mi West 15.0 mph 19.6 mph N/A   Overcast
12:35 PM 30.2 °F 20.8 °F 24.8 °F 80% 30.13 in 10.0 mi West 11.5 mph 18.4 mph N/A   Overcast
12:54 PM 30.2 °F 21.9 °F 24.8 °F 80% 30.14 in 10.0 mi West 9.2 mph - N/A   Overcast
1:35 PM 30.2 °F 21.9 °F 24.8 °F 80% 30.14 in 10.0 mi WNW 9.2 mph 16.1 mph N/A   Overcast
1:54 PM 30.2 °F 21.3 °F 24.8 °F 80% 30.14 in 10.0 mi West 10.4 mph - N/A   Overcast
2:15 PM 30.2 °F 20.8 °F 24.8 °F 80% 30.14 in 10.0 mi West 11.5 mph 16.1 mph N/A   Overcast
2:35 PM 30.2 °F 23.4 °F 24.8 °F 80% 30.15 in 10.0 mi WNW 6.9 mph - N/A   Overcast
2:54 PM 30.2 °F 21.9 °F 24.8 °F 80% 30.16 in 10.0 mi WNW 9.2 mph - N/A   Overcast
3:15 PM 30.2 °F 20.8 °F 24.8 °F 80% 30.17 in 10.0 mi WNW 11.5 mph - N/A   Overcast
3:34 PM 30.2 °F 21.3 °F 24.8 °F 80% 30.19 in 10.0 mi West 10.4 mph - N/A   Overcast
3:55 PM 30.2 °F 20.8 °F 24.8 °F 80% 30.20 in 10.0 mi West 11.5 mph 16.1 mph N/A   Overcast
4:15 PM 30.2 °F 20.8 °F 24.8 °F 80% 30.21 in 10.0 mi West 11.5 mph 17.3 mph N/A   Overcast
4:35 PM 30.2 °F 20.2 °F 24.8 °F 80% 30.22 in 10.0 mi WNW 12.7 mph 17.3 mph N/A   Overcast
4:55 PM 30.2 °F 21.3 °F 24.8 °F 80% 30.23 in 10.0 mi WNW 10.4 mph - N/A   Overcast
5:15 PM 30.2 °F 21.9 °F 24.8 °F 80% 30.23 in 10.0 mi West 9.2 mph - N/A   Overcast
5:55 PM 30.2 °F 22.6 °F 24.8 °F 80% 30.26 in 10.0 mi WNW 8.1 mph - N/A   Overcast
6:15 PM 30.2 °F 21.3 °F 24.8 °F 80% 30.27 in 10.0 mi West 10.4 mph - N/A   Overcast
6:34 PM 30.2 °F 23.4 °F 24.8 °F 80% 30.26 in 10.0 mi West 6.9 mph - N/A   Overcast
6:55 PM 30.2 °F 23.4 °F 24.8 °F 80% 30.27 in 10.0 mi WNW 6.9 mph - N/A   Overcast
7:14 PM 28.4 °F 22.2 °F 24.8 °F 86% 30.27 in 10.0 mi WNW 5.8 mph - N/A   Mostly Cloudy
7:35 PM 28.4 °F 24.6 °F 23.0 °F 80% 30.27 in 10.0 mi NW 3.5 mph - N/A   Clear
7:55 PM 28.4 °F 24.6 °F 23.0 °F 80% 30.27 in 10.0 mi NNW 3.5 mph - N/A   Clear
8:35 PM 26.6 °F - 23.0 °F 86% 30.30 in 10.0 mi Calm Calm - N/A   Clear
8:54 PM 26.6 °F - 23.0 °F 86% 30.30 in 10.0 mi Calm Calm - N/A   Clear
9:15 PM 26.6 °F - 23.0 °F 86% 30.30 in 10.0 mi Calm Calm - N/A   Clear
9:35 PM 24.8 °F - 23.0 °F 93% 30.30 in 10.0 mi Calm Calm - N/A   Clear
9:54 PM 24.8 °F - 21.2 °F 86% 30.31 in 10.0 mi Calm Calm - N/A   Mostly Cloudy
10:15 PM 26.6 °F - 23.0 °F 86% 30.32 in 10.0 mi Calm Calm - N/A   Overcast
10:34 PM 26.6 °F - 24.8 °F 93% 30.33 in 10.0 mi Calm Calm - N/A   Overcast
10:55 PM 28.4 °F - 24.8 °F 86% 30.31 in 10.0 mi Calm Calm - N/A   Overcast
11:14 PM 28.4 °F - 24.8 °F 86% 30.30 in 10.0 mi Calm Calm - N/A   Overcast
11:35 PM 28.4 °F - 24.8 °F 86% 30.29 in 10.0 mi Calm Calm - N/A   Overcast